Hourly Weather Roundup
Issued by NWS Central Illinois

Home | Current Version | Previous Version | Text Only | Print | Product List | Glossary On
Versions: 1 2 3 4 5 6 7 8 9 10 11 12 13 14 15 16 17 18 19 20 21 22 23 24 25 26 27 28 29 30 31 32 33 34 35 36 37 38 39 40 41 42 43 44 45 46 47 48 49 50
000
NZUS43 KILX 301510
HWRILX

AREA WEATHER ROUNDUP
NATIONAL WEATHER SERVICE, LINCOLN IL
900 AM CST FRI JAN 30 2015


CITY           SKY/WX    TMP DP  RH WIND       PRES   REMARKS
BLOOMINGTON    SUNNY     26  19  74 N10       30.52R WCI  16
CHAMPAIGN      SUNNY     28  17  63 N12       30.51R WCI  18
DECATUR        SUNNY     28  19  69 N13       30.53R WCI  17
FLORA          MOSUNNY   31  22  68 N10       30.54R WCI  23
GALESBURG      SUNNY     23  15  74 N7        30.55R WCI  14
JACKSONVILLE   SUNNY     28  19  68 N8        30.55R WCI  20
LACON          SUNNY     24  13  65 N6        30.54R WCI  17
LAWRENCEVILLE  SUNNY     32  23  69 N16       30.52R WCI  21
LITCHFIELD     SUNNY     27  19  70 N12       30.54R WCI  17
$$


CITY           SKY/WX    TMP DP  RH WIND       PRES   REMARKS
LINCOLN        SUNNY     28  20  70 N7        30.55S WCI  21
MACOMB         SUNNY     24  18  77 N9        30.57S WCI  14
MATTOON        SUNNY     28  20  71 N13       30.51R WCI  17
MT CARMEL AP   SUNNY     34  25  69 N10       30.51R WCI  26
OLNEY-NOBLE AP SUNNY     32  23  69 N9        30.53R WCI  24
PARIS          MOSUNNY   29  20  68 N8        30.52R WCI  22
PEORIA         SUNNY     26  15  63 N6        30.55R WCI  19
PONTIAC        SUNNY     25  19  76 N10       30.53S WCI  15
RANTOUL        SUNNY     28  17  63 N10       30.51R WCI  19
ROBINSON       SUNNY     31  23  72 N12       30.52R WCI  22
SPRINGFIELD    SUNNY     28  18  66 N7        30.55R WCI  21
TAYLORVILLE    SUNNY     28  21  74 N10       30.55R WCI  19
$$

...REGIONAL REPORTS...


CITY           SKY/WX    TMP DP  RH WIND       PRES   REMARKS
CHICAGO O`HARE MOSUNNY   22   9  57 N9        30.50F WCI  12
KANKAKEE       SUNNY     26  12  56 N10       30.52R WCI  16
MOLINE         SUNNY     22  11  62 NE3       30.56R
MOUNT VERNON   CLOUDY    30  18  59 N6        30.54R WCI  24
PITTSFIELD     SUNNY     28  19  71 N8        30.56R WCI  19
QUINCY         SUNNY     25  17  72 N9        30.55R WCI  15
ROCKFORD       PTSUNNY   20   8  60 N8        30.54R WCI  10
$$


CITY           SKY/WX    TMP DP  RH WIND       PRES   REMARKS
BURLINGTON     SUNNY     24  15  68 NE9       30.55R WCI  14
CEDAR RAPIDS   SUNNY     17  10  74 N5        30.55R WCI  10
DES MOINES     MOSUNNY   21  13  71 NE3       30.56R
KIRKSVILLE     SUNNY     23  18  81 NE6       30.55R WCI  16
OTTUMWA        SUNNY     21  15  78 N6        30.53F WCI  13
ST LOUIS       MOSUNNY   30  17  58 N10       30.56R WCI  21
$$


CITY           SKY/WX    TMP DP  RH WIND       PRES   REMARKS
TERRE HAUTE    CLOUDY    30  18  60 NE12      30.50R WCI  20
EVANSVILLE     MOSUNNY   34  22  61 N14G23    30.52R WCI  25
INDIANAPOLIS   MOSUNNY   25  14  63 N15       30.46R WCI  13
LAFAYETTE      SUNNY     27  14  58 N12       30.49R WCI  17
MADISON        PTSUNNY   17   8  67 N7        30.51R WCI   8
MILWAUKEE      MOSUNNY   21   7  54 N7        30.51R WCI  12
$$




USA.gov is the U.S. government's official web portal to all federal, state and local government web resources and services.